Location: Newark
(34.9500°N, 139.9667°E)
Time: 08:50:13
(UTC+00:00)

Vanguard 1 Rocket - Pass Details

Date: 17 December 2019
Orbit: 650 x 4226 km, 34.3° (Epoch: 26 January)

Event Time Altitude Azimuth Distance (km) Brightness Sun altitude
Rises 13:28:17 0° 277° (W) 7,481 12.3 -71.2°
Reaches altitude 10° 13:34:05 10° 277° (W) 5,943 11.6 -72.2°
Enters shadow 13:38:26 20° 277° (W) 4,714 11.0 -72.9°
Maximum altitude 13:50:07 80° 194° (SSW) 1,806 - -74.7°
Drops below altitude 10° 13:57:56 10° 108° (ESE) 3,098 - -75.7°
Sets 14:00:02 0° 107° (ESE) 3,803 - -76.0°
